Location: Be Tobo
(6.6442°N, 10.6239°W)
Time: 01:34:10
(UTC+00:00)

Cosmos 2151 Rocket - Pass Details

Date: 18 September 2020
Orbit: 618 x 642 km, 82.5° (Epoch: 21 October)

Event Time Altitude Azimuth Distance (km) Brightness Sun altitude
Rises 20:10:21 0° 187° (S) 2,888 7.0 -23.1°
Reaches altitude 10° 20:12:34 10° 188° (S) 1,984 6.2 -23.7°
Maximum altitude 20:16:57 75° 273° (W) 645 3.6 -24.8°
Drops below altitude 10° 20:21:22 10° 360° (N) 1,993 6.2 -25.9°
Sets 20:23:36 0° 1° (N) 2,902 7.1 -26.4°
